Location: Colorado Springs
(38.8340°N, 104.8210°W)
Time: 11:29:28
(UTC-06:00)

Vanguard 2 - Visible Passes

Search period start: 21 July 2018 00:00
Search period end: 31 July 2018 00:00
Orbit: 553 x 2939 km, 32.9° (Epoch: 20 July)

Date Brightness Start Highest point End Pass type
(mag) Time Alt. Az. Time Alt. Az. Time Alt. Az.
21 Jul 11.0 02:00:44 10° W 02:08:53 22° WSW 02:08:53 22° WSW visible
21 Jul 10.3 21:51:52 10° W 22:08:49 68° S 22:22:15 20° ESE visible
22 Jul 10.3 00:04:14 10° W 00:20:37 46° SSW 00:23:36 43° S visible
22 Jul 11.3 02:20:47 10° W 02:24:56 15° WSW 02:24:56 15° WSW visible
22 Jul 10.4 22:10:06 10° W 22:26:59 64° SSW 22:38:21 26° SE visible
23 Jul 10.5 00:22:52 10° W 00:38:20 38° SW 00:39:42 38° SSW visible
23 Jul 10.4 20:17:28 10° W 20:32:31 71° S 20:50:21 10° ESE visible
23 Jul 10.4 22:28:24 10° W 22:45:05 58° SSW 22:54:29 31° SE visible
24 Jul 10.7 00:41:46 10° W 00:55:50 31° SW 00:55:50 31° SW visible
24 Jul 10.4 20:35:36 10° W 20:50:46 70° S 21:08:30 10° ESE visible
24 Jul 10.5 22:46:44 10° W 23:03:04 51° SSW 23:10:40 35° SSE visible
25 Jul 11.0 01:01:08 10° W 01:12:02 24° SW 01:12:02 24° SW visible
25 Jul 10.4 20:53:45 10° W 21:09:00 66° SSW 21:25:33 13° ESE visible
25 Jul 10.5 23:05:12 10° W 23:20:57 44° SSW 23:26:54 35° S visible
26 Jul 11.3 01:21:22 10° W 01:28:16 17° WSW 01:28:16 17° WSW visible
26 Jul 10.5 21:11:57 10° W 21:27:09 61° SSW 21:41:50 17° SE visible
26 Jul 10.7 23:23:50 10° W 23:38:44 36° SW 23:43:12 33° S visible
27 Jul 11.6 01:44:19 10° WSW 01:44:33 10° WSW 01:44:33 10° WSW visible
27 Jul 10.5 21:30:11 10° W 21:45:16 55° SSW 21:58:10 21° SE visible
27 Jul 10.9 23:42:48 10° W 23:56:26 29° SW 23:59:32 28° SSW visible
28 Jul 10.6 21:48:30 10° W 22:03:17 48° SSW 22:14:34 23° SSE visible
29 Jul 11.1 00:02:18 10° W 00:14:04 22° SW 00:15:56 22° SW visible
29 Jul 10.8 22:06:58 10° W 22:21:14 41° SSW 22:31:01 24° SSE visible
30 Jul 11.4 00:22:54 10° WSW 00:31:40 16° SW 00:32:24 16° SW visible
30 Jul 10.5 20:14:33 10° W 20:27:38 57° SSW 20:44:52 10° SE visible
30 Jul 11.0 22:25:40 10° W 22:39:06 33° SW 22:47:33 23° S visible
